SCP
0 0 0 0 0 0 0 0 0 0 0 0 0 0 0 0 0 0 0 0 0 0 0 0 0 0 0 0 0 0 0 0 0 0 0 0 0 0
0 0 0 0 0 0 0 0 0 0 0 0 0 0 0 0 0 0 0 0 0 0 0 0 0 0 0 0 0 0 0 0 0 0 0 0 0 0
0 0 0 0 0 0 0 0 0 0 0 0 0 0 0 0 0 0 0 0 0 0 0 0 0 0 0 0 0 0 0 0 0 0 0 0 0 0
0 0 0 0 0 0 0 0 0 0 0 0 0 0 0 0 0 0 0 0 0 0 0 0 0 0 0 0 0 0 0 0 0 0 0 0 0 0
0 0 0 0 0 0 0 0 0 0 0 0 0 0 0 0 0 0 0 0 0 0 0 0 0 0 0 0 0 0 0 0 0 0 0 0 0 0
0 0 0 0 0 0 0 0 0 0 0 0 0 0 0 0 0 0 0 0 0 0 0 0 0 0 0 0 0 0 0 0 0 0 0 0 0 0
0 0 0 0 0 0 0 0 0 0 0 0 0 0 0 0 0 0 0 0 0 0 0 0 0 0 0 0 0 0 0 0 0 0 0 0 0 0
0 0 0 0 0 0 0 0 0 0 0 0 0 0 0 0 0 0 0 0 0 0 0 0 0 0 0 0 0 0 0 0 0 0 0 0 0 0
0 0 0 0 0 0 0 0 0 0 0 0 0 0 0 0 0 0 0 0 0 0 0 0 0 0 0 0 0 0 0 0 0 0 0 0 0 0
0 0 0 0 0 0 0 0 0 0 0 0 0 0 0 0 0 0 0 0 0 0 0 0 0 0 0 0 0 0 0 0 0 0 0 0 0 0
0 0 0 0 0 0 0 0 0 0 0 0 0 0 0 0 0 0 0 0 0 0 0 0 0 0 0 0 0 0 0 0 0 0 0 0 0 0
0 0 0 0 0 0 0 0 0 0 0 0 0 0 0 0 0 0 0 0 0 0 0 0 0 0 0 0 0 0 0 0 0 0 0 0 0 0
0 0 0 0 0 0 0 0 0 0 0 0 0 0 0 0 0 0 0 0 0 0 0 0 0 0 0 0 0 0 0 0 0 0 0 0 0 0
0 0 0 0 0 0 0 0 0 0 0 0 0 0 0 0 0 0 0 0 0 0 0 0 0 0 0 0 0 0 0 0 0 0 0 0 0 0
0 0 0 0 0 0 0 0 0 0 0 0 0 0 0 0 0 0 0 0 0 0 0 0 0 0 0 0 0 0 0 0 0 0 0 0 0 0
0 0 0 0 0 0 0 0 0 0 0 0 0 0 0 0 0 0 0 0 0 0 0 0 0 0 0 0 0 0 0 0 0 0 0 0 0 0
0 0 0 0 0 0 0 0 0 0 0 0 0 0 0 0 0 0 0 0 0 0 0 0 0 0 0 0 0 0 0 0 0 0 0 0 0 0
0 0 0 0 0 0 0 0 0 0 0 0 0 0 0 0 0 0 0 0 0 0 0 0 0 0 0 0 0 0 0 0 0 0 0 0 0 0
0 0 0 0 0 0 0 0 0 0 0 0 0 0 0 0 0 0 0 0 0 0 0 0 0 0 0 0 0 0 0 0 0 0 0 0 0 0
0 0 0 0 0 0 0 0 0 0 0 0 0 0 0 0 0 0 0 0 0 0 0 0 0 0 0 0 0 0 0 0 0 0 0 0 0 0
0 0 0 0 0 0 0 0 0 0 0 0 0 0 0 0 0 0 0 0 0 0 0 0 0 0 0 0 0 0 0 0 0 0 0 0 0 0
0 0 0 0 0 0 0 0 0 0 0 0 0 0 0 0 0 0 0 0 0 0 0 0 0 0 0 0 0 0 0 0 0 0 0 0 0 0
0 0 0 0 0 0 0 0 0 0 0 0 0 0 0 0 0 0 0 0 0 0 0 0 0 0 0 0 0 0 0 0 0 0 0 0 0 0
Wind_Speed
8 8 5 4 3 3 3 4 5 3 3 3 2 2 2 2 2 1 1 1 2 2 3 4 5 7 8 9 10 11 12 13 14 15 16 18 18 19
7 8 6 4 4 3 3 3 3 4 3 2 2 2 2 2 3 2 1 1 1 2 4 4 5 6 7 8 9 10 11 12 13 15 16 17 18 19
9 9 8 7 5 4 4 3 3 3 3 1 1 2 3 2 2 1 1 1 1 2 4 4 5 6 7 7 8 9 11 12 13 14 16 17 18 19
11 10 9 7 7 5 4 4 3 3 4 3 1 1 2 2 1 1 0 0 0 2 3 4 5 6 6 7 8 9 10 11 12 14 15 17 18 19
11 11 10 9 8 6 6 5 4 3 3 3 2 1 1 1 1 1 1 1 1 2 2 4 5 6 6 7 7 8 9 11 12 14 15 16 17 18
10 10 10 10 10 9 7 6 5 4 4 3 2 2 1 1 1 0 1 1 2 1 3 4 4 5 6 7 7 8 10 11 13 14 15 16 17 18
9 9 9 10 10 9 7 7 7 5 4 3 3 2 2 1 1 1 1 1 1 1 2 2 2 2 3 5 6 8 10 11 13 14 15 16 16 17
11 9 9 11 11 11 11 10 9 8 6 5 3 3 3 2 2 1 1 1 1 1 2 3 1 2 2 2 5 8 9 11 13 14 15 15 16 17
11 10 7 8 11 9 10 10 7 7 8 6 5 4 4 3 3 2 1 1 1 1 1 2 2 2 3 4 8 8 10 12 13 14 14 15 16 16
10 11 10 10 10 11 9 8 6 4 5 4 5 4 3 3 3 3 2 1 1 1 2 1 2 3 4 3 6 8 11 12 14 14 15 15 16 16
9 9 10 10 15 16 12 10 8 5 7 10 9 8 8 7 6 4 3 2 1 1 2 1 2 3 3 2 4 9 11 12 14 15 16 16 16 15
8 9 12 13 17 17 12 11 10 7 7 7 7 7 6 6 7 4 3 2 1 0 1 1 1 3 4 3 3 4 5 10 14 15 16 17 17 8
8 7 8 16 18 17 13 9 11 10 8 7 6 5 4 3 3 3 2 2 2 1 0 1 1 2 2 4 4 3 3 5 6 7 11 17 18 13
9 8 9 17 17 16 11 13 17 13 7 6 5 4 3 3 2 3 3 3 2 2 1 1 0 1 2 4 4 5 5 4 4 4 5 12 14 16
8 13 16 18 16 12 14 17 14 8 7 6 5 4 3 3 3 3 3 3 3 2 1 0 1 1 1 3 4 5 5 5 4 5 5 6 6 6
10 15 18 16 12 12 12 9 6 6 6 6 5 4 4 3 3 2 2 2 2 2 2 2 1 2 2 4 4 5 5 5 6 6 7 6 6 5
11 8 8 8 7 6 6 6 5 6 5 5 6 5 4 3 2 2 2 1 1 1 2 2 3 3 4 4 3 4 4 4 5 6 8 8 7 5
13 9 9 8 8 8 8 6 5 5 5 5 5 5 5 4 3 2 1 1 1 1 1 2 4 4 4 3 3 3 3 4 5 6 6 7 8 6
10 9 9 9 8 8 8 7 5 5 5 6 6 5 4 4 3 2 2 1 1 1 1 2 2 3 4 5 5 3 4 6 7 6 5 5 7 9
7 9 9 9 9 8 8 7 7 6 6 5 5 5 4 4 3 2 2 1 1 1 2 2 2 2 2 3 5 6 8 6 6 7 7 6 6 10
8 8 8 8 8 8 8 7 7 7 7 6 5 5 4 4 3 3 2 2 1 1 1 2 2 4 2 2 4 6 5 8 10 7 7 7 7 5
8 8 8 8 8 8 8 8 8 7 7 6 5 5 4 4 4 4 2 2 1 0 1 2 3 2 2 3 5 7 8 8 10 13 10 7 5 5
9 9 8 9 8 8 8 8 9 7 7 6 6 5 5 4 3 3 3 2 1 1 1 2 2 2 2 3 4 6 8 9 7 8 6 10 13 13
Wind_Direction
177 178 177 177 166 161 148 148 150 170 211 191 159 144 137 133 141 150 161 245 278 308 319 323 327 326 325 327 329 331 332 335 335 332 330 330 330 330
174 177 177 171 166 159 153 151 149 157 186 184 152 146 140 140 137 137 170 245 261 308 317 321 323 327 329 329 331 333 336 336 334 332 332 333 333 333
175 178 180 170 165 165 157 158 161 149 170 173 108 113 117 125 116 129 150 178 254 303 312 317 324 330 333 338 337 336 337 336 335 335 335 335 334 333
177 176 178 170 167 167 164 170 170 162 156 170 146 118 125 138 134 136 340 235 255 300 310 318 327 332 334 337 338 339 341 341 339 338 336 335 334 333
176 177 175 170 173 169 167 171 170 157 145 149 157 128 111 114 101 44 336 321 300 298 322 326 323 325 325 336 341 342 343 340 337 338 337 336 335 333
175 176 174 175 176 171 172 172 161 153 142 139 143 135 123 113 107 90 318 309 310 351 349 332 325 331 331 335 338 340 340 338 337 337 337 336 335 333
168 168 167 166 170 170 168 167 160 155 147 147 151 141 145 142 180 176 274 315 323 9 338 316 316 318 323 328 332 336 339 339 339 338 337 336 336 335
166 163 161 161 162 159 154 153 157 162 166 161 162 167 180 174 154 144 130 32 291 332 346 305 322 314 307 301 323 334 336 340 340 338 337 337 337 336
165 162 158 159 152 148 140 132 132 141 153 157 157 173 168 175 153 146 155 180 238 290 360 299 314 314 317 325 330 338 342 341 340 339 339 339 339 338
165 163 159 156 157 148 140 130 120 115 130 130 138 140 133 134 144 152 153 105 24 359 40 312 310 311 320 314 328 344 342 341 342 341 341 342 341 341
159 158 158 159 156 146 142 139 127 110 96 105 104 104 103 104 108 105 98 80 26 342 22 15 320 322 314 306 324 336 337 340 342 342 342 342 341 342
149 153 158 158 157 153 153 151 149 147 133 114 99 91 87 90 90 103 129 117 98 292 357 19 344 348 323 306 316 320 327 336 341 342 342 342 342 341
154 155 159 157 156 156 153 155 153 143 136 128 118 107 94 83 72 68 73 115 136 198 299 37 356 342 308 305 309 313 326 324 325 328 337 340 341 341
158 155 150 150 150 151 149 144 139 133 130 128 125 125 121 108 87 72 69 67 90 157 223 117 198 289 308 308 301 313 319 313 315 317 319 332 335 335
146 145 143 144 142 141 141 140 138 136 136 136 140 140 130 122 110 91 72 65 45 26 19 30 221 274 276 282 294 304 315 314 319 326 321 322 317 319
130 133 132 131 127 128 133 135 133 140 140 141 137 129 120 118 116 106 92 66 45 9 356 352 322 287 286 282 281 291 298 301 318 324 321 315 310 307
134 129 132 135 134 131 129 130 129 131 128 128 132 132 129 122 116 101 92 69 65 0 338 340 328 301 269 265 281 285 295 301 307 319 323 319 311 306
138 145 148 149 149 148 145 140 138 139 137 135 135 136 137 137 130 111 82 75 67 14 337 330 338 342 343 317 259 282 301 303 309 313 314 314 312 312
141 149 153 155 152 149 149 149 147 143 139 139 138 138 137 135 133 128 106 76 54 16 347 345 354 359 350 331 311 310 314 311 313 313 309 306 301 305
149 153 154 153 152 152 152 147 142 140 140 140 138 139 139 139 138 135 130 122 75 11 354 353 357 350 323 299 295 297 303 301 308 310 308 302 288 294
152 149 148 149 151 150 148 145 145 146 144 141 141 142 143 139 136 135 134 125 78 45 352 331 309 322 296 293 302 302 301 310 313 306 306 311 312 312
149 146 145 149 149 148 146 144 142 142 143 142 143 141 140 139 141 141 136 132 102 46 336 314 309 321 332 324 315 311 311 315 319 321 313 298 306 313
147 145 146 148 147 145 145 144 143 145 146 145 142 142 140 137 135 133 130 124 107 69 5 334 334 337 325 314 311 311 314 319 323 328 319 322 321 308